Weather History for PASK - October, 2012

Change the Weather History Date:

Wednesday, October 24, 2012

  Actual Average Record
Temperature  
Mean Temperature 19 °F -  
Max Temperature 24 °F 19 °F 39 °F (2002)
Min Temperature 14 °F 11 °F -2 °F (1996)
Degree Days  
Heating Degree Days 46    
Moisture  
Dew Point 13 °F    
Average Humidity 79    
Maximum Humidity 93    
Minimum Humidity 69    
Precipitation  
Precipitation 0.00 in - - ()
Sea Level Pressure  
Sea Level Pressure 30.76 in    
Wind  
Wind Speed 8 mph (ENE)    
Max Wind Speed 15 mph    
Max Gust Speed -    
Visibility 10 miles    
Events      
Averages and records for this station are not official NWS values.
T = Trace of Precipitation, MM = Missing Value Source: NWS Daily Summary

Daily Weather History Graph

Daily Weather History Graph

Search for Another Location

Airport or City:

Trip Planner

Search our weather history database for the weather conditions in past years. The results will help you decide how hot, cold, wet, or windy it might be!

Date:

Astronomy

Oct. 24, 2012 Rise Set
Actual Time 10:12 AM AKDT 6:33 PM AKDT
Civil Twilight 9:15 AM AKDT 7:30 PM AKDT
Nautical Twilight 8:14 AM AKDT 8:31 PM AKDT
Astronomical Twilight 7:13 AM AKDT 9:32 PM AKDT
Moon 5:32 PM AKDT (10/24) 3:26 AM AKDT (10/24)
Length of Visible Light 10h 14m
Length of Day
8h 21m
Waxing Gibbous, 77% of the Moon is Illuminated
Oct 24
Waxing Gibbous
Oct 29
Full
Nov 6
Last Quarter
Nov 13
New
Nov 20
First Quarter

Hourly Weather History & Observations

Time (AKDT) Temp. Windchill Dew Point Humidity Pressure Visibility Wind Dir Wind Speed Gust Speed Precip Events Conditions
12:16 AM 17.6 °F - 15.8 °F 93% 30.74 in 10.0 mi Calm Calm - N/A   Clear
12:36 AM 17.6 °F 12.3 °F 15.8 °F 93% 30.74 in 10.0 mi NE 3.5 mph - N/A   Clear
12:56 AM 19.4 °F 10.4 °F 17.6 °F 93% 30.74 in 10.0 mi ENE 6.9 mph - N/A   Clear
1:16 AM 17.6 °F 9.3 °F 14.0 °F 86% 30.74 in 10.0 mi ENE 5.8 mph - N/A   Partly Cloudy
1:36 AM 17.6 °F 9.3 °F 12.2 °F 79% 30.75 in 10.0 mi ENE 5.8 mph - N/A   Partly Cloudy
1:56 AM 17.6 °F 9.3 °F 12.2 °F 79% 30.75 in 0.8 mi NE 5.8 mph - N/A   Overcast
2:16 AM 15.8 °F 6.1 °F 12.2 °F 86% 30.75 in 10.0 mi NE 6.9 mph - N/A   Mostly Cloudy
2:36 AM 15.8 °F 6.1 °F 12.2 °F 86% 30.76 in 10.0 mi ENE 6.9 mph - N/A   Partly Cloudy
2:56 AM 15.8 °F 5.1 °F 12.2 °F 86% 30.76 in 10.0 mi ENE 8.1 mph - N/A   Scattered Clouds
3:16 AM 15.8 °F 4.2 °F 12.2 °F 86% 30.77 in 10.0 mi ENE 9.2 mph - N/A   Partly Cloudy
3:36 AM 15.8 °F 6.1 °F 12.2 °F 86% 30.78 in 10.0 mi ENE 6.9 mph - N/A   Clear
3:56 AM 15.8 °F 5.1 °F 12.2 °F 86% 30.78 in 10.0 mi ENE 8.1 mph - N/A   Clear
4:16 AM 15.8 °F 4.2 °F 12.2 °F 86% 30.78 in 10.0 mi East 9.2 mph - N/A   Clear
4:36 AM 15.8 °F 6.1 °F 10.4 °F 79% 30.77 in 10.0 mi East 6.9 mph - N/A   Clear
4:56 AM 15.8 °F 3.4 °F 12.2 °F 86% 30.78 in 10.0 mi ENE 10.4 mph - N/A   Clear
5:16 AM 15.8 °F 5.1 °F 10.4 °F 79% 30.78 in 10.0 mi ENE 8.1 mph - N/A   Clear
5:36 AM 15.8 °F 7.2 °F 10.4 °F 79% 30.78 in 10.0 mi East 5.8 mph - N/A   Clear
5:56 AM 15.8 °F 6.1 °F 12.2 °F 86% 30.78 in 10.0 mi ENE 6.9 mph - N/A   Clear
6:16 AM 15.8 °F 5.1 °F 10.4 °F 79% 30.77 in 10.0 mi ENE 8.1 mph - N/A   Clear
6:36 AM 15.8 °F 4.2 °F 10.4 °F 79% 30.77 in 10.0 mi East 9.2 mph - N/A   Clear
6:56 AM 15.8 °F 2.1 °F 10.4 °F 79% 30.76 in 10.0 mi East 12.7 mph - N/A   Clear
7:16 AM 15.8 °F 2.1 °F 10.4 °F 79% 30.76 in 10.0 mi East 12.7 mph - N/A   Clear
7:36 AM 15.8 °F 4.2 °F 10.4 °F 79% 30.76 in 10.0 mi ENE 9.2 mph - N/A   Clear
7:56 AM 15.8 °F 3.4 °F 10.4 °F 79% 30.77 in 10.0 mi ENE 10.4 mph - N/A   Clear
8:16 AM 15.8 °F 2.7 °F 8.6 °F 73% 30.78 in 10.0 mi ENE 11.5 mph - N/A   Clear
8:36 AM 15.8 °F 2.7 °F 10.4 °F 79% 30.77 in 10.0 mi ENE 11.5 mph - N/A   Clear
8:56 AM 15.8 °F 2.7 °F 10.4 °F 79% 30.77 in 10.0 mi East 11.5 mph - N/A   Clear
9:16 AM 14.0 °F 2.0 °F 8.6 °F 79% 30.78 in 10.0 mi ENE 9.2 mph - N/A   Clear
9:36 AM 14.0 °F 2.0 °F 8.6 °F 79% 30.77 in 10.0 mi ENE 9.2 mph - N/A   Clear
9:56 AM 15.8 °F 2.1 °F 8.6 °F 73% 30.76 in 10.0 mi ENE 12.7 mph - N/A   Clear
10:16 AM 15.8 °F 0.9 °F 10.4 °F 79% 30.76 in 10.0 mi ENE 15.0 mph - N/A   Clear
10:36 AM 15.8 °F 3.4 °F 10.4 °F 79% 30.77 in 10.0 mi ENE 10.4 mph - N/A   Clear
10:56 AM 15.8 °F 2.7 °F 8.6 °F 73% 30.78 in 10.0 mi ENE 11.5 mph - N/A   Clear
11:16 AM 15.8 °F 2.1 °F 10.4 °F 79% 30.78 in 10.0 mi ENE 12.7 mph - N/A   Clear
11:36 AM 15.8 °F 3.4 °F 10.4 °F 79% 30.78 in 10.0 mi ENE 10.4 mph - N/A   Clear
11:56 AM 15.8 °F 2.1 °F 10.4 °F 79% 30.78 in 10.0 mi ENE 12.7 mph - N/A   Clear
12:16 PM 15.8 °F 2.1 °F 10.4 °F 79% 30.78 in 10.0 mi ENE 12.7 mph - N/A   Clear
12:36 PM 17.6 °F 4.3 °F 12.2 °F 79% 30.78 in 10.0 mi ENE 12.7 mph - N/A   Clear
12:56 PM 19.4 °F 7.2 °F 12.2 °F 74% 30.78 in 10.0 mi ENE 11.5 mph - N/A   Clear
1:16 PM 19.4 °F 7.9 °F 12.2 °F 74% 30.79 in 10.0 mi NE 10.4 mph - N/A   Clear
1:36 PM 19.4 °F 7.9 °F 14.0 °F 80% 30.79 in 10.0 mi NE 10.4 mph - N/A   Clear
1:56 PM 21.2 °F 10.9 °F 15.8 °F 80% 30.79 in 10.0 mi ENE 9.2 mph - N/A   Clear
2:16 PM 21.2 °F 9.5 °F 15.8 °F 80% 30.79 in 10.0 mi ENE 11.5 mph - N/A   Clear
2:36 PM 23.0 °F 12.4 °F 15.8 °F 74% 30.78 in 10.0 mi ENE 10.4 mph - N/A   Clear
2:56 PM 24.8 °F 14.6 °F 15.8 °F 69% 30.78 in 10.0 mi ENE 10.4 mph - N/A   Clear
3:16 PM 24.8 °F 14.6 °F 15.8 °F 69% 30.78 in 10.0 mi NE 10.4 mph - N/A   Clear
3:36 PM 24.8 °F 14.0 °F 15.8 °F 69% 30.78 in 10.0 mi NE 11.5 mph - N/A   Clear
3:56 PM 24.8 °F 13.4 °F 15.8 °F 69% 30.77 in 10.0 mi NE 12.7 mph - N/A   Clear
4:16 PM 24.8 °F 14.0 °F 15.8 °F 69% 30.76 in 10.0 mi ENE 11.5 mph - N/A   Clear
4:36 PM 24.8 °F 14.6 °F 15.8 °F 69% 30.76 in 10.0 mi ENE 10.4 mph - N/A   Clear
4:56 PM 24.8 °F 15.3 °F 15.8 °F 69% 30.75 in 10.0 mi ENE 9.2 mph - N/A   Clear
5:16 PM 24.8 °F 16.9 °F 17.6 °F 74% 30.76 in 10.0 mi ENE 6.9 mph - N/A   Clear
5:36 PM 24.8 °F 16.9 °F 17.6 °F 74% 30.76 in 10.0 mi ENE 6.9 mph - N/A   Clear
5:56 PM 24.8 °F 16.1 °F 17.6 °F 74% 30.76 in 10.0 mi ENE 8.1 mph - N/A   Clear
6:16 PM 24.8 °F 15.3 °F 17.6 °F 74% 30.74 in 10.0 mi East 9.2 mph - N/A   Clear
6:36 PM 24.8 °F 16.9 °F 17.6 °F 74% 30.74 in 10.0 mi ENE 6.9 mph - N/A   Clear
6:56 PM 23.0 °F 15.8 °F 17.6 °F 80% 30.74 in 10.0 mi ENE 5.8 mph - N/A   Clear
7:16 PM 23.0 °F 15.8 °F 17.6 °F 80% 30.74 in 10.0 mi ENE 5.8 mph - N/A   Clear
7:36 PM 21.2 °F 14.9 °F 15.8 °F 80% 30.74 in 10.0 mi ENE 4.6 mph - N/A   Clear
7:56 PM 21.2 °F 13.6 °F 17.6 °F 86% 30.74 in 10.0 mi ENE 5.8 mph - N/A   Clear
11:16 PM 19.4 °F 7.9 °F 12.2 °F 74% 30.72 in 10.0 mi ENE 10.4 mph - N/A   Clear
11:36 PM 19.4 °F 6.6 °F 12.2 °F 74% 30.72 in 10.0 mi ENE 12.7 mph - N/A   Clear
11:56 PM 19.4 °F 7.2 °F 14.0 °F 80% 30.72 in 10.0 mi ENE 11.5 mph - N/A   Clear